Satellite: AO-40 Catalog number: 26609 Epoch time: 01294.63483796 Element set: 158 Inclination: 6.1700 deg RA of node: 148.5697 deg Eccentricity: 0.7961406 Arg of perigee: 341.6707 deg Mean anomaly: 1.5669 deg Mean motion: 1.25596784 rev/day Decay rate: -6.10000e-07 rev/day^2 Epoch rev: 449 Checksum: 328